IS0GQX-3 Weather Reports


time (UTC)temp
C
wind
direction
speed
KPH
gust
KPH
rain 1hr
cm
rain 24hr
cm
rain mn
cm
humidity
%
barometer
mb
20260507183731 27 0.0 0.0 0.00 0.00 7.11 1012.5
20260507181731 28 0.0 0.0 0.00 0.00 7.11 1012.3
20260507175730 29 0.0 0.0 0.00 0.00 7.11 1011.8
20260507173730 28 0.0 0.0 0.00 0.00 7.11 1011.5
20260507171729 28 0.0 0.0 0.00 0.00 7.11 1011.5
20260507165729 29 0.0 0.0 0.00 0.00 7.11 1011.4
20260507163729 29 0.0 0.0 0.00 0.00 7.11 1011.7
20260507161728 21 0.0 0.0 0.00 0.00 7.11 1012.3
20260507154115 23 0.0 0.0 0.00 0.00 0.00 1012.9
20260507152115 22 0.0 0.0 0.00 0.00 7.11 1013.3
20260507150115 22 0.0 0.0 0.00 0.00 7.11 1013.3
20260507144114 22 0.0 0.0 0.00 0.00 7.11 1013.3
20260507142114 22 0.0 0.0 0.00 0.00 7.11 1013.3
20260507140114 22 0.0 0.0 0.00 0.00 7.11 1013.2
20260507134113 22 0.0 0.0 0.00 0.00 7.11 1013.6
20260507132113 22 0.0 0.0 0.00 0.00 7.11 1013.1
20260507130113 22 0.0 0.0 0.00 0.00 7.11 1013.7
20260507124112 23 0.0 0.0 0.00 0.00 7.11 1013.8
20260507123316 25 0.0 0.0 0.00 0.00 7.11 1013.1
20260507123015 25 0.0 0.0 0.00 0.00 7.11 1013.1
20260507121319 23 0.0 0.0 0.00 0.00 7.11 1013.8
20260507120246 22 0.0 0.0 0.00 0.00 7.11 1014.0
20260507115555 22 0.0 0.0 0.00 0.00 7.11 1014.1
20260507113555 22 0.0 0.0 0.00 0.00 7.11 1014.1
20260507111554 22 0.0 0.0 0.00 0.00 7.11 1014.2
20260507111139 22 0.0 0.0 0.00 0.00 7.11 1014.2
20260507110803 23 0.0 0.0 0.00 0.00 7.11 1014.3
20260507103655 26 0.0 0.0 0.00 0.00 7.11 1013.7
20260507102844 26 0.0 0.0 0.00 0.00 7.11 1014.4
20260507102505 23 0.0 0.0 0.00 0.00 7.11 1014.6
20260507102041 23 0.0 0.0 0.00 0.00 7.11 1014.6
20260507095124 29 0.0 0.0 0.00 0.00 7.11 1013.7
20260507095015 29 0.0 0.0 0.00 0.00 7.11 1013.6
20260507094921 29 0.0 0.0 0.00 0.00 7.11 1013.6
20260507094832 28 0.0 0.0 0.00 0.00 7.11 1013.6
20260507094619 28 0.0 0.0 0.00 0.00 7.11 1013.6
20260507081518 26 0.0 0.0 0.00 0.00 7.11 1013.7
20260507080714 28 0.0 0.0 0.00 0.00 7.11 1013.6
20260507080449 29 0.0 0.0 0.00 0.00 7.11 1013.5
20260507080341 29 0.0 0.0 0.00 0.00 7.11 1013.6
20260507080213 29 0.0 0.0 0.00 0.00 7.11 1013.6
20260507080124 29 0.0 0.0 0.00 0.00 7.11 1013.6
20260507080036 28 0.0 0.0 0.00 0.00 7.11 1013.6
20260507075946 28 0.0 0.0 0.00 0.00 7.11 1013.6
20260507075857 28 0.0 0.0 0.00 0.00 7.11 1013.6
20260507075749 28 0.0 0.0 0.00 0.00 7.11 1013.6
20260507075630 28 0.0 0.0 0.00 0.00 7.11 1013.6
20260507073630 27 0.0 0.0 0.00 0.00 7.11 1013.9
20260507073535 27 0.0 0.0 0.00 0.00 7.11 1013.9
20260507071534 26 0.0 0.0 0.00 0.00 7.11 1014.3
20260507065534 25 0.0 0.0 0.00 0.00 7.11 1014.2
20260507064814 25 0.0 0.0 0.00 0.00 0.00 1014.1
20260507062814 23 0.0 0.0 0.00 0.00 0.00 1013.9
20260507060814 23 0.0 0.0 0.00 0.00 0.00 1013.6
20260507054814 23 0.0 0.0 0.00 0.00 0.00 1013.5
20260507052813 22 0.0 0.0 0.00 0.00 0.00 1013.5
20260507050813 21 0.0 0.0 0.00 0.00 0.00 1013.3
20260507044813 21 0.0 0.0 0.00 0.00 0.00 1013.3
20260507042812 20 0.0 0.0 0.00 0.00 0.00 1013.3
20260507040813 20 0.0 0.0 0.00 0.00 0.00 1013.2
20260507034812 19 0.0 0.0 0.00 0.00 0.00 1013.0
20260507032811 20 0.0 0.0 0.00 0.00 0.00 1013.4
20260507030811 20 0.0 0.0 0.00 0.00 0.00 1013.3
20260507024811 20 0.0 0.0 0.00 0.00 0.00 1013.5
20260507022810 20 0.0 0.0 0.00 0.00 0.00 1013.5
20260507020810 20 0.0 0.0 0.00 0.00 0.00 1013.5
20260507014810 21 0.0 0.0 0.00 0.00 0.00 1013.5
20260507010806 21 0.0 0.0 0.00 0.00 0.00 1013.5
20260507004806 21 0.0 0.0 0.00 0.00 0.00 1013.7
20260507002805 21 0.0 0.0 0.00 0.00 0.00 1013.6
20260507000806 21 0.0 0.0 0.00 0.00 0.00 1013.7
20260506234805 21 0.0 0.0 0.00 0.00 0.00 1014.0
20260506232804 21 0.0 0.0 0.00 0.00 0.00 1014.2
20260506230804 21 0.0 0.0 0.00 0.00 0.00 1014.4
20260506224804 21 0.0 0.0 0.00 0.00 0.00 1014.4
20260506222803 21 0.0 0.0 0.00 0.00 0.00 1014.3
20260506220803 22 0.0 0.0 0.00 0.00 0.00 1014.4
20260506214803 22 0.0 0.0 0.00 0.00 0.00 1014.4
20260506212803 22 0.0 0.0 0.00 0.00 0.00 1014.5
20260506210802 21 0.0 0.0 0.00 0.00 0.00 1013.7
20260506204802 21 0.0 0.0 0.00 0.00 0.00 1014.3
20260506202802 22 0.0 0.0 0.00 0.00 0.00 1013.8
20260506200801 22 0.0 0.0 0.00 0.00 0.00 1013.5
20260506194801 21 0.0 0.0 0.00 0.00 0.00 1013.2
20260506192801 22 0.0 0.0 0.00 0.00 0.00 1013.9
20260506190800 22 0.0 0.0 0.00 0.00 0.00 1014.0